Weather reports worldwide

Advertisment
Greybull, wy, United States of America (2074482): temperature & dewpoint: 06.12.2019 22:00:00 - 12.12.2019 22:00:00 (MST)Greybull, wy, United States of America (2074482): wind speed & gusts: 06.12.2019 22:00:00 - 12.12.2019 22:00:00 (MST)Greybull, wy, United States of America (2074482): wind direction: 06.12.2019 22:00:00 - 12.12.2019 22:00:00 (MST)Greybull, wy, United States of America (2074482): reduced air pressure: 06.12.2019 22:00:00 - 12.12.2019 22:00:00 (MST)Greybull, wy, United States of America (2074482): visibility: 06.12.2019 22:00:00 - 12.12.2019 22:00:00 (MST)Greybull, wy, United States of America (2074482): precipitation: 06.12.2019 22:00:00 - 12.12.2019 22:00:00 (MST)
Date & Time tt [°C] td [°C] ff [km/h] ff [kn] fx [km/h] fx [kn] dd ppp [hPa] vv [km] rr [mm]
12.12.2019 22:00:00 -2,2 -3,9 9 5 - - SE 1015,7 16 -
12.12.2019 21:00:00 -1,7 -3,9 8 4 - - SE 1015,9 16 -
12.12.2019 20:00:00 -0,6 -3,3 9 5 - - ESE 1016,1 16 -
12.12.2019 19:00:00 1,1 -3,9 9 5 - - ESE 1015,7 16 -
12.12.2019 18:00:00 1,1 -3,9 8 4 - - ENE 1015,2 16 -
12.12.2019 17:00:00 2,2 -4,4 8 4 - - WNW 1015,7 16 -
12.12.2019 16:00:00 2,8 -4,4 5 3 - - WSW 1014,1 16 -
12.12.2019 15:00:00 3,3 -5,0 8 4 - - - 1013,9 16 -
12.12.2019 14:00:00 3,9 -5,0 8 4 - - S 1014,4 16 -
12.12.2019 13:00:00 1,7 -5,0 13 7 - - ESE 1014,9 16 -
12.12.2019 12:00:00 0,6 -5,6 8 4 - - SSE 1015,7 16 -
12.12.2019 11:00:00 -0,6 -5,6 5 3 - - W 1016,9 16 -
12.12.2019 10:00:00 -3,3 -6,7 5 3 - - SE 1017,1 16 -
12.12.2019 09:00:00 -6,1 -8,9 11 6 - - - 1017,8 16 -
12.12.2019 08:00:00 -7,8 -9,4 0 0 - - N 1017,9 16 -
12.12.2019 07:00:00 -6,7 -8,9 5 3 - - N 1018,3 16 -
12.12.2019 06:00:00 -6,7 -8,9 9 5 - - N 1018,5 16 -
12.12.2019 05:00:00 -6,7 -8,3 0 0 - - N 1018,5 16 -
12.12.2019 04:00:00 -6,1 -8,3 8 4 - - S 1018,4 16 -
12.12.2019 03:00:00 -7,8 -10,0 5 3 - - ESE 1019,1 16 -
12.12.2019 02:00:00 -7,8 -10,0 8 4 - - N 1019,6 16 -
12.12.2019 01:00:00 -7,8 -10,0 5 3 - - W 1019,7 16 -
12.12.2019 00:00:00 -7,2 -9,4 13 7 - - SSE 1020,0 16 -
11.12.2019 23:00:00 -9,4 -11,7 0 0 - - N 1021,1 16 -
11.12.2019 22:00:00 -8,9 -10,6 5 3 - - NE 1020,6 16 -
11.12.2019 21:00:00 -8,3 -10,6 0 0 - - N 1020,0 16 -
11.12.2019 20:00:00 -6,7 -9,4 8 4 - - ESE 1019,7 16 -
11.12.2019 19:00:00 -6,7 -9,4 0 0 - - N 1020,2 16 -
11.12.2019 18:00:00 -6,7 -8,9 8 4 - - NNW 1019,6 16 -
11.12.2019 17:00:00 -4,4 -7,8 9 5 - - NNW 1018,8 16 -
11.12.2019 16:00:00 -1,1 -6,1 8 4 - - S 1017,6 16 -
11.12.2019 15:00:00 -2,2 -6,7 5 3 - - SE 1018,1 16 -
11.12.2019 14:00:00 -2,8 -6,7 0 0 - - N 1018,5 16 -
11.12.2019 13:00:00 -3,3 -7,2 5 3 - - E 1018,9 16 -
11.12.2019 12:00:00 -4,4 -8,3 8 4 - - - 1019,6 16 -
11.12.2019 11:00:00 -5,6 -7,8 5 3 - - S 1020,4 16 -
11.12.2019 10:00:00 -6,1 -8,3 0 0 - - N 1021,0 16 -
11.12.2019 09:00:00 -7,2 -9,4 0 0 - - N 1021,0 16 -
11.12.2019 08:00:00 -7,8 -10,0 0 0 - - N 1020,6 16 -
11.12.2019 07:00:00 -7,8 -10,0 5 3 - - NW 1021,0 16 -
11.12.2019 06:00:00 -8,3 -10,6 0 0 - - N 1020,8 16 -
11.12.2019 05:00:00 -8,9 -11,1 8 4 - - SSW 1022,0 16 -
11.12.2019 04:00:00 -9,4 -11,1 8 4 - - SSE 1022,4 16 -
11.12.2019 03:00:00 -10,6 -12,2 9 5 - - SE 1022,8 16 -
11.12.2019 02:00:00 -10,0 -11,7 0 0 - - N 1023,5 16 -
11.12.2019 01:00:00 -9,4 -10,6 8 4 - - S 1024,2 16 -
11.12.2019 00:00:00 -7,2 -9,4 9 5 - - SE 1024,7 16 -
10.12.2019 23:00:00 -7,2 -8,9 0 0 - - N 1025,5 16 -
10.12.2019 22:00:00 -6,7 -8,9 0 0 - - N 1025,8 16 -
10.12.2019 21:00:00 -6,7 -9,4 5 3 - - SW 1026,2 16 -
10.12.2019 20:00:00 -5,0 -7,8 8 4 - - SE 1026,2 16 -
10.12.2019 19:00:00 -3,3 -6,7 0 0 - - N 1025,7 16 -
10.12.2019 18:00:00 -2,2 -6,1 5 3 - - SSE 1025,1 16 -
10.12.2019 17:00:00 -1,1 -6,1 9 5 - - S 1024,6 16 -
10.12.2019 16:00:00 0,0 -5,6 11 6 - - SE 1023,9 16 -
10.12.2019 15:00:00 1,1 -6,1 11 6 - - SSE 1023,5 16 -
10.12.2019 14:00:00 0,6 -6,1 11 6 - - SSE 1023,3 16 -
10.12.2019 13:00:00 0,0 -6,7 9 5 - - SSE 1023,7 16 -
10.12.2019 12:00:00 -1,7 -6,7 11 6 - - SE 1024,6 16 -
10.12.2019 11:00:00 -3,9 -7,8 8 4 - - SSE 1025,4 16 -
10.12.2019 10:00:00 -5,0 -7,8 5 3 - - ESE 1025,5 16 -
10.12.2019 09:00:00 -6,1 -8,9 8 4 - - SE 1025,3 16 -
10.12.2019 08:00:00 -7,8 -8,9 9 5 - - S 1025,1 15 -
10.12.2019 07:00:00 -5,6 -7,2 0 0 - - N 1024,2 16 -
10.12.2019 06:00:00 -5,6 -7,2 0 0 - - N 1023,7 16 -
10.12.2019 05:00:00 -5,6 -6,7 5 3 - - S 1023,5 15 -
10.12.2019 04:00:00 - - - - - - - - - -
10.12.2019 03:00:00 -4,4 -6,1 0 0 - - N 1023,4 15 -
10.12.2019 02:00:00 -4,4 -6,1 - - - - - 1022,9 16 -
10.12.2019 01:00:00 -4,4 -6,1 0 0 - - N 1023,0 10 0,0
10.12.2019 00:00:00 -4,4 -6,1 5 3 - - SSE 1023,5 8 0,0
09.12.2019 23:00:00 -4,4 -6,1 0 0 - - N 1023,7 4,8 0,0
09.12.2019 22:00:00 -3,9 -6,7 5 3 - - NNW 1023,6 2,8 0,0
09.12.2019 21:00:00 -3,9 -8,3 8 4 - - NW 1023,2 16 -
09.12.2019 20:00:00 -3,9 -8,3 5 3 - - N 1022,8 16 -
09.12.2019 19:00:00 -3,9 -7,8 8 4 - - NW 1022,9 16 -
09.12.2019 18:00:00 -3,3 -8,9 9 5 - - WSW 1022,4 16 -
09.12.2019 17:00:00 -3,3 -8,9 5 3 - - W 1022,4 16 -
09.12.2019 16:00:00 -2,8 -8,9 11 6 - - S 1021,8 16 -
09.12.2019 15:00:00 -2,8 -8,9 8 4 - - S 1021,8 16 -
09.12.2019 14:00:00 -2,8 -8,9 11 6 - - SSE 1021,5 16 -
09.12.2019 13:00:00 -3,3 -9,4 9 5 - - SSE 1022,4 16 -
09.12.2019 12:00:00 -5,6 -10,6 9 5 - - S 1023,5 16 -
09.12.2019 11:00:00 -6,7 -10,6 0 0 - - N 1024,5 16 -
09.12.2019 10:00:00 -8,3 -11,1 0 0 - - N 1024,8 16 -
09.12.2019 09:00:00 -10,0 -12,2 0 0 - - N 1023,8 16 -
09.12.2019 08:00:00 -11,1 -13,3 0 0 - - N 1023,3 16 -
09.12.2019 07:00:00 -11,1 -13,3 0 0 - - N 1022,5 16 -
09.12.2019 06:00:00 -11,7 -13,9 0 0 - - N 1022,3 16 -
09.12.2019 05:00:00 -11,7 -13,9 9 5 - - S 1021,9 16 -
09.12.2019 04:00:00 -10,0 -12,8 0 0 - - N 1021,0 16 -
09.12.2019 03:00:00 -10,0 -12,8 0 0 - - N 1020,7 16 -
09.12.2019 02:00:00 -9,4 -12,8 5 3 - - WNW 1019,8 16 -
09.12.2019 01:00:00 -8,9 -12,2 5 3 - - SSW 1019,7 16 -
09.12.2019 00:00:00 -7,8 -12,2 13 7 - - NW 1019,7 16 -
08.12.2019 23:00:00 -7,8 -12,2 28 15 48 26 WNW 1018,8 16 -
08.12.2019 22:00:00 -7,2 -12,2 24 13 - - W 1017,4 16 -
08.12.2019 21:00:00 -6,1 -11,7 34 18 50 27 W 1016,4 16 -
08.12.2019 20:00:00 -5,6 -11,1 34 18 57 31 WNW 1015,8 16 -
08.12.2019 19:00:00 -3,9 -8,9 37 20 55 30 NNW 1014,5 16 -
08.12.2019 18:00:00 -3,3 -6,7 28 15 59 32 NW 1012,7 16 0,0
08.12.2019 17:00:00 -3,3 -5,6 37 20 59 32 NNW 1011,8 3,2 0,0
08.12.2019 16:00:00 -0,6 -2,8 29 16 - - WNW 1009,1 16 0,0
08.12.2019 15:00:00 1,1 -1,7 28 15 - - NNW 1007,4 16 0,0
08.12.2019 14:00:00 6,1 -1,7 28 15 - - NNW 1005,2 16 -
08.12.2019 13:00:00 5,0 -1,7 0 0 - - N 1004,5 16 -
08.12.2019 12:00:00 2,2 -2,8 0 0 - - N 1005,1 16 -
08.12.2019 11:00:00 0,0 -3,3 5 3 - - SSE 1006,0 16 -
08.12.2019 10:00:00 -1,1 -4,4 9 5 - - NNW 1006,9 16 -
08.12.2019 09:00:00 -3,3 -5,6 5 3 - - WNW 1006,3 16 -
08.12.2019 08:00:00 -5,0 -7,2 11 6 - - N 1007,1 16 -
08.12.2019 07:00:00 -6,1 -7,8 0 0 - - N 1007,4 16 -
08.12.2019 06:00:00 -5,0 -7,2 5 3 - - NNW 1008,4 16 -
08.12.2019 05:00:00 -6,1 -7,8 0 0 - - N 1008,9 16 -
08.12.2019 04:00:00 -6,7 -8,3 0 0 - - N 1009,1 16 -
08.12.2019 03:00:00 -6,1 -7,8 9 5 - - SW 1009,6 16 -
08.12.2019 02:00:00 -5,0 -7,2 15 8 - - W 1010,1 16 -
08.12.2019 01:00:00 -4,4 -6,7 8 4 - - WSW 1011,0 16 -
08.12.2019 00:00:00 -2,2 -5,6 9 5 - - WNW 1012,1 16 -
07.12.2019 23:00:00 -1,1 -5,6 8 4 - - S 1012,8 16 -
07.12.2019 22:00:00 -2,2 -5,6 11 6 - - SW 1013,3 16 -
07.12.2019 21:00:00 -0,6 -5,0 0 0 - - N 1014,1 16 -
07.12.2019 20:00:00 -2,2 -5,6 0 0 - - N 1014,9 16 -
07.12.2019 19:00:00 -0,6 -5,0 8 4 - - - 1014,3 16 -
07.12.2019 18:00:00 -1,7 -5,0 8 4 - - S 1014,7 16 -
07.12.2019 17:00:00 0,6 -4,4 13 7 - - W 1014,4 16 -
07.12.2019 16:00:00 5,0 -3,3 0 0 - - N 1013,9 16 -
07.12.2019 15:00:00 5,6 -3,9 9 5 - - SSE 1014,0 16 -
07.12.2019 14:00:00 5,6 -4,4 11 6 - - SSE 1014,1 16 -
07.12.2019 13:00:00 4,4 -3,9 11 6 - - SE 1014,9 16 -
07.12.2019 12:00:00 0,6 -5,0 9 5 - - SSE 1016,5 16 -
07.12.2019 11:00:00 -2,8 -6,7 0 0 - - N 1017,7 16 -
07.12.2019 10:00:00 -6,1 -8,3 5 3 - - - 1018,6 16 -
07.12.2019 09:00:00 -7,2 -9,4 15 8 - - SSW 1018,1 16 -
07.12.2019 08:00:00 -9,4 -11,1 0 0 - - N 1018,1 16 -
07.12.2019 07:00:00 -8,3 -10,0 9 5 - - NNW 1018,3 16 -
07.12.2019 06:00:00 -8,3 -10,0 8 4 - - W 1017,8 16 -
07.12.2019 05:00:00 -7,8 -9,4 5 3 - - SSE 1017,5 16 -
07.12.2019 04:00:00 -7,2 -8,9 8 4 - - W 1017,8 16 -
07.12.2019 03:00:00 -7,8 -9,4 5 3 - - WSW 1019,5 16 -
07.12.2019 02:00:00 -6,7 -8,3 0 0 - - N 1019,5 16 -
07.12.2019 01:00:00 -6,7 -8,3 0 0 - - N 1020,7 16 -
07.12.2019 00:00:00 -7,2 -9,4 5 3 - - WSW 1021,9 16 -
06.12.2019 23:00:00 -6,7 -8,3 5 3 - - SE 1022,7 16 -
06.12.2019 22:00:00 -5,0 -7,2 8 4 - - SE 1023,3 16 -

tt = temperature
td = dewpoint
ff = wind speed
fx = gusts
dd = wind direction
ppp = reduced air pressure
vv = visibility
rr = precipitation

Next stations